Miscellaneous Local Product
Issued by NWS Hastings, NE

Home | Current Version | Previous Version | Text Only | Print | Product List | Glossary On
Versions: 1 2 3 4 5 6 7 8 9 10 11 12 13 14 15 16 17 18 19 20 21 22 23 24 25 26 27 28 29 30 31 32 33 34 35 36 37 38 39 40 41 42 43 44 45 46 47 48 49 50
000
AXUS43 KGID 261702
MISGRI

GID CWA HOURLY WEATHER ROUNDUP
NATIONAL WEATHER SERVICE HASTINGS NE
1200 PM CDT WED APR 26 2017

NOTE: "FAIR" INDICATES FEW OR NO CLOUDS BELOW 12,000 FEET WITH NO
SIGNIFICANT WEATHER AND/OR OBSTRUCTIONS TO VISIBILITY.

...SOUTH CENTRAL NEBRASKA...

CITY           SKY/WX    TMP DP  RH WIND       PRES   REMARKS
GRAND ISLAND   CLOUDY    39  32  76 NW24      29.75R WCI  28
HASTINGS       CLOUDY    41  31  67 NW22G29   29.75R
KEARNEY        CLOUDY    41  28  60 NW22G31   29.75S
ORD            CLOUDY    39  30  70 NW23      29.74S WCI  28
YORK           CLOUDY    39  32  75 NW14G20   29.74R WCI  31
AURORA         CLOUDY    40  32  74 N18G26    29.74R WCI  31
LEXINGTON      CLOUDY    40  31  69 NW21      29.77S WCI  30
HOLDREGE       CLOUDY    40  29  65 N21G28    29.75S WCI  30
HEBRON         CLOUDY    42  31  66 N15       29.74S

...NEBRASKA PANHANDLE...

CITY           SKY/WX    TMP DP  RH WIND       PRES   REMARKS
CHADRON        CLOUDY    33  27  78 CALM      29.84F
ALLIANCE       CLOUDY    34  28  79 NW7       29.80F WCI  28
SCOTTSBLUFF    SUNNY     45  30  55 CALM      29.79F
SIDNEY         SUNNY     46  31  55 N14       29.79F

...WESTERN AND NORTH CENTRAL NEBRASKA...

CITY           SKY/WX    TMP DP  RH WIND       PRES   REMARKS
VALENTINE      CLOUDY    36  26  67 NW16      29.80S WCI  26
AINSWORTH      CLOUDY    34  29  82 NW21G26   29.78S WCI  23
ONEILL         CLOUDY    36  30  78 NW25      29.75S WCI  24
BROKEN BOW     CLOUDY    38  29  70 NW22      29.76S WCI  27
IMPERIAL       MOSUNNY   43  30  60 N17       29.80F
NORTH PLATTE   CLOUDY    41  29  62 NW17G29   29.79F
MCCOOK         CLOUDY    42  29  59 NW20G28   29.79F

...EASTERN NEBRASKA...

CITY           SKY/WX    TMP DP  RH WIND       PRES   REMARKS
NORFOLK        CLOUDY    36  29  75 NW21G33   29.68R WCI  25
SO SIOUX CITY  CLOUDY    38  32  79 NW21G30   29.68R WCI  28
TEKAMAH        CLOUDY    41  32  70 NW16      29.70R
COLUMBUS       CLOUDY    37  30  75 NW17      29.73R WCI  28
ALBION         CLOUDY    39  31  72 NW21G31   29.72R WCI  29
OMAHA EPPLEY   CLOUDY    41  33  73 NW18      29.69R
OFFUTT AFB     CLOUDY    41  33  73 NW15      29.69S
MILLARD        CLOUDY    42  34  72 NW13G23   29.71R
LINCOLN        CLOUDY    41  32  70 NW17      29.74R
NEBRASKA CITY  CLOUDY    43  30  59 N17G24    29.68S
BEATRICE       CLOUDY    41  34  75 NW18      29.71S
FALLS CITY     CLOUDY    46  35  65 N18G26    29.66S

...NORTHERN KANSAS...

CITY           SKY/WX    TMP DP  RH WIND       PRES   REMARKS
GOODLAND       SUNNY     44  30  57 N17G26    29.78F
HILL CITY      PTSUNNY   49  30  48 N18G30    29.77S
NORTON         PTSUNNY   45  30  57 NW18G28   29.75F
PHILLIPSBURG   CLOUDY    45  30  57 NW15G25   29.76S
SMITH CENTER   CLOUDY    43  30  61 NW18G24   29.75S
HAYS           CLOUDY    47  31  53 N17G25    29.75S
RUSSELL        PTSUNNY   47  31  53 N21G30    29.73R
CONCORDIA      CLOUDY    47  35  63 NW16G24   29.71S
SALINA         CLOUDY    48  34  58 N21       29.72R
TOPEKA         CLOUDY    50  40  68 NW12G22   29.66F



USA.gov is the U.S. government's official web portal to all federal, state and local government web resources and services.